Location: Unspecified
(51.4066°N, 0.0000°E)
Time: 14:02:06
(UTC+00:00)

CZ-2C R/B - Visible Passes

Search period start: 04 April 2026 00:00
Search period end: 14 April 2026 00:00
Orbit: 698 x 769 km, 98.7° (Epoch: 29 March)

Date Brightness Start Highest point End Pass type
(mag) Time Alt. Az. Time Alt. Az. Time Alt. Az.
5 Apr ? 19:34:25 10° SW 19:38:03 20° W 19:41:39 10° NW visible
7 Apr ? 19:41:05 10° SW 19:44:25 18° W 19:47:43 10° NW visible
9 Apr ? 19:47:49 10° SW 19:50:47 16° W 19:53:44 10° NW visible
11 Apr ? 19:54:37 10° WSW 19:57:09 14° W 19:59:41 10° NW visible
13 Apr ? 20:01:34 10° WSW 20:03:32 12° W 20:05:30 10° WNW visible
